Вернуться в каталог

COSMOS 1833

АктивенВоенныеLEO
NORAD 17589·PAYLOAD·🇷🇺 Russia

Запущен Mar 18, 1987 с Baikonur Cosmodrome

Loading…

Ближайшие Пролёты (ближайшие 24 часа)

TLE

СвежийSource: Space-Track

Эпоха: Sep 14, 2026, 12:21 UTC

1 17589U 87027A   26257.51497941 -.00000328  00000-0 -14955-3 0  9998
2 17589  70.9166 289.1175 0027012 279.1389  80.6676 14.13049454 36990

Отслеживайте COSMOS 1833 в реальном времени с AllMySat

Download on the App Store